To NAV CANADA Home Page Login to a new session Search on AWWS site Feedback and Comments Disclaimer Vers la page française équivalente Tips FAQ What's new on the site To the Forecasts and Observations / NOTAM section To "File a Flight Plan" website Publications and other links Update of the User's profile FIC Telephone Numbers My Weather Data Folder Route Weather Data Regional Weather Data Local Weather Data To the Forecasts and Observations / NOTAM section
Request Generated 02/05/2016 at 21:52:30 UTC . Weather information available at that time is displayed.

METAR/TAF

KANGIQSUALUJJUAQ/KANGIQSUALUJJUAQ (GEORGES RIVER)/QC    

METAR CYLU 052100Z 13007KT 15SM FEW020 FEW100 M25/M28 A3013 RMK
SC1CS1 SLP216 DENSITY ALT MISG=
METAR CYLU 052000Z 17013KT 15SM FEW020 FEW050 M25/M28 A3012 RMK
SC1SC1 SLP212 DENSITY ALT MISG=
METAR CYLU 051900Z 16012KT 15SM FEW015 FEW020 SCT050 SCT100 M25/M28
A3013 RMK SC1SC1SC1CI1 SLP216 DENSITY ALT MISG=

CYLU - No TAF is issued for this station

Your time UTC time
Weather data provided by Environment Canada and NAV CANADA